[[{"header":{"parameterUnit":"m.s-1","parameterCategory":1,"la1":30.2991,"la2":30.254,"lo1":-89.0895,"lo2":-89.0444,"dy":0.0017,"dx":0.0017,"nx":28,"ny":28,"refTime":"2025-07-16T09:00:00:Z","depth":0,"parameterNumber":2,"parameterNumberName":"U-component_of_WINDS"},"data":[0,0,0,0,0,0,0,0,0,0,0,0,0,0,0,0,0,0,0,0,0,0,0,0,0,0,0,0,0,0,0,0,0,0,0,0,0,0,0,0,0,0,0,0,0,0,0,0,0,0,0,0,0,0,0,0,0,0,-2.868,-2.8678,0,-2.8471,-2.8469,-2.8466,-2.8381,-2.8381,-2.8382,-2.8382,-2.817,-2.8164,-2.8158,0,0,0,0,0,0,0,0,0,0,0,0,0,-2.9005,-2.9,-2.868,-2.8678,-2.8675,-2.8471,-2.8468,-2.8466,-2.8381,-2.8381,-2.8382,-2.8382,-2.8172,-2.8165,-2.8157,0,0,0,0,0,0,0,0,0,0,0,0,0,-2.8837,-2.8998,-2.8681,-2.8608,-2.8599,-2.8472,-2.8468,-2.8465,-2.838,-2.8381,-2.8382,-2.8383,-2.8174,-2.8165,-2.8156,-2.8086,0,0,-2.8128,-2.8125,0,0,0,0,0,0,0,0,-2.8847,-2.8825,-2.8621,-2.8613,-2.8603,-2.8452,-2.8505,-2.8338,-2.838,-2.8464,-2.8382,-2.8383,-2.8263,-2.8247,-2.8206,-2.8076,-2.8067,-2.8128,-2.8122,-2.8118,-2.8116,0,0,0,0,0,0,0,-2.8858,-2.8834,-2.8597,-2.8618,-2.8607,-2.8585,-2.8562,-2.8473,-2.8362,-2.8456,-2.845,-2.8426,-2.8259,-2.8215,-2.8201,-2.8064,-2.8128,-2.812,-2.8114,-2.8111,-2.7861,-2.786,0,0,0,0,0,0,-2.8882,-2.8844,-2.8604,-2.8591,-2.8729,-2.8579,-2.8553,-2.85,-2.8363,-2.8343,-2.8426,-2.8423,-2.8231,-2.8212,-2.8193,-2.8099,-2.8118,-2.811,-2.8105,-2.7862,-2.7861,-2.786,0,0,0,0,0,0,-2.8889,-2.8861,-2.8613,-2.8715,-2.8682,-2.8573,-2.8514,-2.8496,-2.8452,-2.834,-2.832,-2.8402,-2.823,-2.8206,-2.8112,-2.809,-2.8106,-2.8097,-2.7864,-2.7862,-2.786,-2.7912,0,0,0,0,0,0,-2.8899,-2.8865,-2.8837,-2.8716,-2.8677,-2.8536,-2.8513,-2.8491,-2.8437,-2.8431,-2.8312,-2.8293,-2.8229,-2.8126,-2.8103,-2.8078,-2.809,-2.7865,-2.7863,-2.7861,-2.7912,-2.7912,-2.7912,0,0,0,0,0,-2.8911,-2.8862,-2.8836,-2.8808,-2.8641,-2.8535,-2.8513,-2.8439,-2.8435,-2.8406,-2.8333,-2.8297,-2.8097,-2.8117,-2.8091,-2.8062,-2.7866,-2.7864,-2.7861,-2.7911,-2.7912,-2.7912,0,0,0,0,0,0,-2.8985,-2.8844,-2.8815,-2.8725,-2.8642,-2.8521,-2.8482,-2.8443,-2.8361,-2.8359,-2.8272,-2.8246,-2.8159,-2.8101,-2.8127,-2.7985,-2.7978,-2.797,-2.8026,-2.8025,-2.8026,-2.8041,-2.8083,0,0,0,0,0,-2.8991,-2.8917,-2.8798,-2.873,-2.8689,-2.8593,-2.8544,-2.8494,-2.8406,-2.8371,-2.8291,-2.8207,-2.8124,-2.8072,-2.799,-2.7903,-2.7874,-2.787,-2.7871,-2.7871,-2.7865,-2.7811,-2.7807,-2.7851,-2.7851,-2.7851,0,0,-2.9003,-2.8916,-2.8875,-2.8742,-2.8672,-2.8596,-2.8564,-2.8487,-2.8429,-2.8359,-2.8265,-2.8203,-2.8103,-2.8011,-2.7967,-2.7961,-2.7846,-2.7868,-2.787,-2.7863,-2.7808,-2.7804,-2.78,-2.785,-2.785,-2.785,0,0,-2.8984,-2.8913,-2.8846,-2.8776,-2.8669,-2.8605,-2.8589,-2.8472,-2.8428,-2.8332,-2.8276,-2.8207,-2.8068,-2.7997,-2.7943,-2.7894,-2.7856,-2.787,-2.7872,-2.782,-2.7817,-2.7813,-2.7793,-2.7787,-2.7864,-2.7864,-2.7864,0,-2.9012,-2.8895,-2.8817,-2.874,-2.8682,-2.8614,-2.8544,-2.8481,-2.8354,-2.8315,-2.8309,-2.813,-2.8058,-2.7947,-2.7935,-2.7895,-2.7872,-2.7883,-2.7824,-2.7819,-2.7815,-2.7794,-2.7787,-2.7866,-2.7866,-2.7866,-2.7866,0,-2.8933,-2.8853,-2.8812,-2.8688,-2.8626,-2.8554,-2.8464,-2.841,-2.8365,-2.83,-2.8201,-2.8112,-2.8009,-2.7979,-2.7936,-2.7861,-2.786,-2.7841,-2.7832,-2.7814,-2.7793,-2.7785,-2.787,-2.7869,-2.7868,-2.7868,0,0,-2.8958,-2.8789,-2.8775,-2.8717,-2.8593,-2.8529,-2.8452,-2.835,-2.8304,-2.8218,-2.8151,-2.8033,-2.8012,-2.7951,-2.7898,-2.7854,-2.7816,-2.7838,-2.7834,-2.7835,-2.7725,-2.7739,-2.7732,-2.7791,-2.7789,-2.7787,-2.7732,0,-2.8921,-2.8781,-2.8706,-2.8597,-2.852,-2.8452,-2.8384,-2.8301,-2.8238,-2.8163,-2.8094,-2.801,-2.7991,-2.7953,-2.7906,-2.7831,-2.7792,-2.7834,-2.7726,-2.7723,-2.7751,-2.7721,-2.7737,-2.769,-2.7724,-2.7723,-2.7722,0,-2.886,-2.8772,-2.8655,-2.8536,-2.8501,-2.8442,-2.834,-2.827,-2.8172,-2.813,-2.8059,-2.8007,-2.7922,-2.792,-2.7801,-2.7831,-2.7782,-2.7738,-2.7734,-2.772,-2.772,-2.7705,-2.7673,-2.7665,-2.7709,-2.771,-2.7711,0,-2.8887,-2.874,-2.8649,-2.8601,-2.8461,-2.8421,-2.836,-2.8263,-2.8205,-2.8116,-2.8077,-2.7981,-2.7928,-2.7854,-2.7775,-2.7782,-2.7663,-2.7655,-2.7624,-2.7626,-2.7601,-2.7604,-2.756,-2.7573,-2.7573,-2.7573,-2.7573,0,-2.8853,-2.8784,-2.8658,-2.8603,-2.8522,-2.8436,-2.8358,-2.8292,-2.8206,-2.8135,-2.8071,-2.8007,-2.7908,-2.7831,-2.7769,-2.7678,-2.7655,-2.7617,-2.7602,-2.7622,-2.7627,-2.7588,-2.7589,-2.7571,-2.7572,-2.7572,-2.7572,0,-2.887,-2.8783,-2.868,-2.8554,-2.852,-2.8466,-2.8358,-2.83,-2.8233,-2.8144,-2.8119,-2.8013,-2.7918,-2.7833,-2.7708,-2.7666,-2.7573,-2.7554,-2.7605,-2.7597,-2.7569,-2.7572,-2.7497,-2.7482,-2.7508,-2.7508,-2.7508,0,-2.8853,-2.8797,-2.8664,-2.8611,-2.8552,-2.8468,-2.8408,-2.832,-2.826,-2.8142,-2.8098,-2.7998,-2.7913,-2.7765,-2.7677,-2.758,-2.7557,-2.7537,-2.7542,-2.7563,-2.7554,-2.7557,-2.755,-2.7538,-2.7538,-2.7538,-2.7538,0,-2.8832,-2.8791,-2.8706,-2.8604,-2.8533,-2.845,-2.8364,-2.8325,-2.8221,-2.8156,-2.8057,-2.7991,-2.7861,-2.7762,-2.7654,-2.7591,-2.7547,-2.7537,-2.7524,-2.7544,-2.7575,-2.7555,-2.7605,-2.754,-2.7539,-2.7539,-2.7539,-2.7539,-2.883,-2.8776,-2.8672,-2.8578,-2.8504,-2.8425,-2.8363,-2.8287,-2.8202,-2.8088,-2.8042,-2.7941,-2.7841,-2.7691,-2.7628,-2.7547,-2.7539,-2.7521,-2.7516,-2.7513,-2.7515,-2.7589,-2.7528,-2.7528,-2.7527,-2.7527,-2.7527,0,-2.8804,-2.8733,-2.8647,-2.8528,-2.8453,-2.8416,-2.8318,-2.8259,-2.817,-2.808,-2.7996,-2.7881,-2.7783,-2.7686,-2.7583,-2.7536,-2.7513,-2.7512,-2.7514,-2.75,-2.753,-2.755,-2.7532,-2.7532,-2.7532,-2.7532,-2.7532,-2.7532,-2.8782,-2.8687,-2.8633,-2.8499,-2.8428,-2.8327,-2.8274,-2.8199,-2.8127,-2.8,-2.7918,-2.7854,-2.7761,-2.7649,-2.7557,-2.7531,-2.7495,-2.75,-2.7468,-2.7498,-2.7498,-2.7499,-2.7517,-2.7493,-2.7493,-2.7444,-2.7444,-2.7443]},{"header":{"parameterUnit":"m.s-1","parameterCategory":1,"la1":30.2991,"la2":30.254,"lo1":-89.0895,"lo2":-89.0444,"dy":0.0017,"dx":0.0017,"nx":28,"ny":28,"refTime":"2025-07-16T09:00:00:Z","depth":0,"parameterNumber":3,"parameterNumberName":"V-component_of_WINDS"},"data":[0,0,0,0,0,0,0,0,0,0,0,0,0,0,0,0,0,0,0,0,0,0,0,0,0,0,0,0,0,0,0,0,0,0,0,0,0,0,0,0,0,0,0,0,0,0,0,0,0,0,0,0,0,0,0,0,0,0,4.5744,4.5744,0,4.5771,4.5771,4.5771,4.5723,4.5721,4.5719,4.5718,4.5744,4.5746,4.5748,0,0,0,0,0,0,0,0,0,0,0,0,0,4.5651,4.5653,4.5744,4.5744,4.5744,4.5771,4.5771,4.5772,4.5723,4.5721,4.5719,4.5717,4.5743,4.5746,4.5749,0,0,0,0,0,0,0,0,0,0,0,0,0,4.5686,4.5653,4.5744,4.5723,4.5722,4.5771,4.5771,4.5772,4.5723,4.5721,4.5719,4.5716,4.5742,4.5746,4.5749,4.5818,0,0,4.5759,4.5761,0,0,0,0,0,0,0,0,4.5684,4.5689,4.5726,4.5725,4.5723,4.5741,4.5748,4.5787,4.5724,4.5723,4.5718,4.5715,4.5745,4.5748,4.5758,4.5819,4.5821,4.5759,4.5761,4.5763,4.5764,0,0,0,0,0,0,0,4.5682,4.5688,4.5754,4.5727,4.5725,4.5713,4.5716,4.5755,4.5747,4.5723,4.5719,4.5723,4.5744,4.5755,4.5758,4.5821,4.5759,4.5762,4.5764,4.5766,4.5943,4.5946,0,0,0,0,0,0,4.5682,4.5686,4.5753,4.5755,4.5697,4.5717,4.5719,4.5738,4.5747,4.5746,4.5725,4.5721,4.5751,4.5755,4.5759,4.5842,4.5763,4.5766,4.5768,4.594,4.5944,4.5947,0,0,0,0,0,0,4.568,4.5688,4.5752,4.572,4.5727,4.5721,4.5742,4.574,4.5751,4.5749,4.5747,4.5738,4.5749,4.5755,4.5805,4.5842,4.5767,4.577,4.5937,4.5941,4.5945,4.6007,0,0,0,0,0,0,4.5677,4.5688,4.5713,4.5721,4.5729,4.5797,4.5744,4.5742,4.5757,4.5751,4.576,4.5759,4.5747,4.58,4.5808,4.5845,4.5773,4.5934,4.5939,4.5944,4.6002,4.6013,4.6022,0,0,0,0,0,4.5674,4.5729,4.5715,4.5723,4.5761,4.5799,4.5804,4.5789,4.576,4.5786,4.5785,4.5759,4.5837,4.5805,4.5814,4.5853,4.5931,4.5938,4.5944,4.5997,4.6011,4.6022,0,0,0,0,0,0,4.5724,4.5729,4.5714,4.5772,4.5786,4.5791,4.5823,4.5804,4.5825,4.5819,4.58,4.5803,4.5857,4.586,4.5825,4.5922,4.5879,4.5888,4.5917,4.593,4.594,4.5937,4.5776,0,0,0,0,0,4.5743,4.5773,4.5776,4.5828,4.5835,4.5829,4.5845,4.5833,4.5846,4.5851,4.5853,4.5867,4.5894,4.5913,4.5938,4.6003,4.6005,4.6034,4.6045,4.6053,4.606,4.6096,4.611,4.5967,4.5967,4.5967,0,0,4.5779,4.5786,4.5806,4.5838,4.5847,4.588,4.5833,4.5869,4.5893,4.5856,4.5903,4.5907,4.592,4.5979,4.6005,4.5983,4.6101,4.6061,4.6068,4.607,4.6104,4.6118,4.613,4.5971,4.597,4.597,0,0,4.5864,4.5872,4.5916,4.5928,4.5943,4.5938,4.595,4.5959,4.5959,4.6007,4.5981,4.601,4.6057,4.6069,4.6081,4.6175,4.6152,4.6184,4.6237,4.6273,4.6284,4.6294,4.6327,4.634,4.6191,4.6191,4.6191,0,4.5907,4.5955,4.5941,4.598,4.5995,4.5966,4.6011,4.6022,4.6045,4.6056,4.6033,4.6094,4.6101,4.6162,4.6186,4.6197,4.6209,4.6181,4.6284,4.6293,4.6302,4.6334,4.6347,4.6195,4.6194,4.6194,4.6194,0,4.6009,4.6043,4.6078,4.6102,4.6121,4.6163,4.6156,4.6178,4.6166,4.6165,4.6215,4.6223,4.6251,4.6265,4.6252,4.6326,4.6312,4.6287,4.6243,4.632,4.635,4.6362,4.62,4.6199,4.6198,4.6197,0,0,4.6121,4.6141,4.6153,4.6165,4.6182,4.6208,4.625,4.6278,4.6297,4.6315,4.635,4.6393,4.6371,4.6385,4.6374,4.6405,4.648,4.6376,4.6376,4.6395,4.6563,4.6581,4.6595,4.6466,4.6469,4.6471,4.6561,0,4.6205,4.6277,4.6268,4.6337,4.637,4.6344,4.6381,4.6395,4.6396,4.6424,4.6425,4.6456,4.6424,4.6433,4.6463,4.6465,4.6513,4.6458,4.6498,4.65,4.6494,4.6611,4.663,4.6715,4.6573,4.6575,4.6576,0,4.6311,4.6335,4.6408,4.6422,4.6436,4.6469,4.6495,4.6522,4.6539,4.6538,4.6556,4.6541,4.6584,4.6542,4.6601,4.6564,4.658,4.6584,4.6587,4.6589,4.6542,4.6615,4.6741,4.6754,4.6594,4.6593,4.6592,0,4.6386,4.6436,4.6487,4.6498,4.6516,4.654,4.6549,4.6564,4.6582,4.6606,4.6618,4.6646,4.6661,4.6683,4.6677,4.6647,4.6738,4.6695,4.6738,4.6739,4.6757,4.6755,4.6887,4.6769,4.6769,4.6769,4.6769,0,4.6479,4.6525,4.6521,4.6552,4.6603,4.6593,4.6645,4.665,4.6664,4.6696,4.6676,4.6707,4.6697,4.6727,4.6723,4.6773,4.678,4.6781,4.6778,4.6782,4.6782,4.6791,4.6785,4.6772,4.6772,4.6771,4.677,0,4.657,4.657,4.6623,4.6638,4.6642,4.668,4.6692,4.6721,4.6723,4.6764,4.6773,4.6775,4.681,4.6806,4.6845,4.6842,4.6905,4.6896,4.6899,4.6897,4.6941,4.6936,4.7081,4.71,4.6971,4.6973,4.6974,0,4.6629,4.6664,4.6683,4.6704,4.6715,4.6749,4.6768,4.6761,4.6782,4.6807,4.6834,4.6868,4.6894,4.6952,4.6957,4.6987,4.6979,4.7028,4.6983,4.6986,4.6979,4.6977,4.6981,4.7036,4.7037,4.7038,4.7039,0,4.6735,4.6734,4.6763,4.6794,4.6818,4.6841,4.6862,4.6881,4.6876,4.6901,4.6938,4.6959,4.7,4.7034,4.7064,4.7073,4.7056,4.7054,4.7066,4.7069,4.7069,4.707,4.6923,4.705,4.7049,4.7048,4.7048,4.7047,4.6811,4.6842,4.6861,4.6895,4.6911,4.6933,4.6962,4.6968,4.6999,4.7033,4.7027,4.7068,4.7087,4.7126,4.7138,4.7171,4.7153,4.717,4.7174,4.7178,4.7183,4.7065,4.7176,4.7176,4.7176,4.7176,4.7175,0,4.6915,4.6928,4.6959,4.6991,4.7019,4.7002,4.7026,4.705,4.7087,4.7107,4.7134,4.7178,4.7212,4.7221,4.7253,4.7278,4.7271,4.7287,4.7285,4.7287,4.7197,4.7184,4.7292,4.7292,4.7292,4.7292,4.7292,4.7292,4.6973,4.7025,4.7027,4.7087,4.7099,4.714,4.7155,4.7175,4.7191,4.7241,4.727,4.7276,4.7292,4.7326,4.7357,4.7359,4.7372,4.7391,4.739,4.7305,4.7293,4.7282,4.7269,4.7394,4.7394,4.7477,4.7478,4.7479]}]]